Regional Weather Roundup
Issued by NWS Tiyan, Guam

Home | Current Version | Previous Version | Text Only | Print | Product List | Glossary On
Versions: 1 2 3 4 5 6 7 8 9 10 11 12 13 14 15 16 17 18 19 20 21 22 23 24 25 26 27
000
ASGM40 PGUM 310610
RWRGUM
WEATHER ROUNDUP FOR THE MARIANAS
NATIONAL WEATHER SERVICE TIYAN GU
400 PM CHST SAT JUL 31 2021

GUZ001>004-310700-
MARIANA ISLANDS-

CITY           SKY/WX    TMP DP  RH WIND       PRES   REMARKS
GUAM AIRPORT   NOT AVBL
ANDERSEN AFB   PTSUNNY   81  77  89 NW9       29.77S
ROTA AIRPORT   PTSUNNY   81  75  83 W12       29.73F
TINIAN AP      MOSUNNY   86  75  70 N8        29.74F HX  95
SAIPAN AP      MOSUNNY   86  77  74 NW8       29.75F HX  97

$$




USA.gov is the U.S. government's official web portal to all federal, state and local government web resources and services.